| time (UTC) | temp C | wind direction | speed KPH | gust KPH | rain 1hr cm | rain 24hr cm | rain mn cm | humidity % | barometer mb |
| 20260503200016 | 24 | 225 | 1.6 | 4.8 | 0.00 | 0.00 | 0.00 | 52 | 1012.6 |
| 20260503195017 | 24 | 0.0 | 4.8 | 0.00 | 0.00 | 0.00 | 56 | 1012.8 | |
| 20260503194016 | 23 | 225 | 1.6 | 6.4 | 0.00 | 0.00 | 0.00 | 59 | 1012.9 |
| 20260503193017 | 23 | 0.0 | 4.8 | 0.00 | 0.00 | 0.00 | 59 | 1013.0 | |
| 20260503192118 | 23 | 0.0 | 3.2 | 0.00 | 0.00 | 0.00 | 60 | 1013.2 | |
| 20260503191036 | 22 | 158 | 1.6 | 6.4 | 0.00 | 0.00 | 0.00 | 61 | 1013.3 |
| 20260503190019 | 22 | 158 | 1.6 | 6.4 | 0.00 | 0.00 | 0.00 | 59 | 1013.4 |
| 20260503185036 | 22 | 225 | 1.6 | 6.4 | 0.00 | 0.00 | 0.00 | 57 | 1013.5 |
| 20260503184036 | 22 | 158 | 1.6 | 4.8 | 0.00 | 0.00 | 0.00 | 56 | 1013.7 |
| 20260503183016 | 21 | 0.0 | 3.2 | 0.00 | 0.00 | 0.00 | 58 | 1013.8 | |
| 20260503182017 | 21 | 158 | 1.6 | 4.8 | 0.00 | 0.00 | 0.00 | 60 | 1013.9 |
| 20260503181016 | 20 | 0.0 | 4.8 | 0.00 | 0.00 | 0.00 | 61 | 1013.9 | |
| 20260503180016 | 20 | 158 | 1.6 | 4.8 | 0.00 | 0.00 | 0.00 | 63 | 1014.0 |
| 20260503175036 | 20 | 158 | 1.6 | 4.8 | 0.00 | 0.00 | 0.00 | 63 | 1014.1 |
| 20260503174016 | 19 | 158 | 1.6 | 3.2 | 0.00 | 0.00 | 0.00 | 64 | 1014.2 |
| 20260503173016 | 18 | 158 | 1.6 | 6.4 | 0.00 | 0.00 | 0.00 | 68 | 1014.4 |
| 20260503172016 | 18 | 158 | 1.6 | 4.8 | 0.00 | 0.00 | 0.00 | 71 | 1014.4 |
| 20260503171016 | 17 | 0.0 | 6.4 | 0.00 | 0.00 | 0.00 | 72 | 1014.4 | |
| 20260503131015 | 10 | 0.0 | 0.0 | 0.00 | 0.00 | 0.00 | 94 | 1014.5 | |
| 20260503081017 | 12 | 0.0 | 0.0 | 0.00 | 0.00 | 0.00 | 84 | 1014.9 | |
| 20260503072035 | 12 | 0.0 | 0.0 | 0.00 | 0.00 | 0.00 | 84 | 1014.8 | |
| 20260503071019 | 13 | 0.0 | 0.0 | 0.00 | 0.00 | 0.00 | 83 | 1014.8 | |
| 20260503055017 | 14 | 0.0 | 0.0 | 0.00 | 0.00 | 0.00 | 81 | 1014.6 | |
| 20260503054017 | 14 | 0.0 | 0.0 | 0.00 | 0.00 | 0.00 | 80 | 1014.6 | |
| 20260503053017 | 15 | 0.0 | 0.0 | 0.00 | 0.00 | 0.00 | 79 | 1014.6 | |
| 20260503052017 | 15 | 0.0 | 0.0 | 0.00 | 0.00 | 0.00 | 79 | 1014.6 | |
| 20260503051038 | 15 | 0.0 | 0.0 | 0.00 | 0.00 | 0.00 | 78 | 1014.5 | |
| 20260503050037 | 15 | 0.0 | 0.0 | 0.00 | 0.00 | 0.00 | 79 | 1014.5 | |
| 20260503045017 | 16 | 0.0 | 0.0 | 0.00 | 0.00 | 0.00 | 80 | 1014.5 | |
| 20260503044038 | 16 | 0.0 | 0.0 | 0.00 | 0.00 | 0.00 | 77 | 1014.4 | |
| 20260503043017 | 16 | 0.0 | 0.0 | 0.00 | 0.00 | 0.00 | 78 | 1014.3 | |
| 20260503042058 | 16 | 0.0 | 0.0 | 0.00 | 0.00 | 0.00 | 76 | 1014.2 | |
| 20260503041017 | 16 | 0.0 | 0.0 | 0.00 | 0.00 | 0.00 | 77 | 1014.1 | |
| 20260503040017 | 17 | 0.0 | 0.0 | 0.00 | 0.00 | 0.00 | 76 | 1014.0 | |
| 20260503035017 | 17 | 0.0 | 0.0 | 0.00 | 0.00 | 0.00 | 74 | 1013.9 | |
| 20260503034037 | 17 | 0.0 | 0.0 | 0.00 | 0.00 | 0.00 | 71 | 1013.7 | |
| 20260503033017 | 18 | 0.0 | 0.0 | 0.00 | 0.00 | 0.00 | 71 | 1013.6 | |
| 20260503032017 | 18 | 0.0 | 0.0 | 0.00 | 0.00 | 0.00 | 71 | 1013.5 | |
| 20260503031016 | 18 | 0.0 | 0.0 | 0.00 | 0.00 | 0.00 | 69 | 1013.4 | |
| 20260503030016 | 19 | 0.0 | 0.0 | 0.00 | 0.00 | 0.00 | 68 | 1013.3 | |
| 20260503025017 | 20 | 0.0 | 0.0 | 0.00 | 0.00 | 0.00 | 67 | 1013.3 | |
| 20260503024017 | 20 | 0.0 | 3.2 | 0.00 | 0.00 | 0.00 | 66 | 1013.2 | |
| 20260503023016 | 20 | 0.0 | 1.6 | 0.00 | 0.00 | 0.00 | 68 | 1013.1 | |
| 20260503022016 | 20 | 0.0 | 3.2 | 0.00 | 0.00 | 0.00 | 69 | 1013.0 | |
| 20260503021037 | 20 | 0.0 | 3.2 | 0.00 | 0.00 | 0.00 | 66 | 1013.1 | |
| 20260503020016 | 21 | 0.0 | 4.8 | 0.00 | 0.00 | 0.00 | 63 | 1013.1 | |
| 20260503015037 | 21 | 0.0 | 3.2 | 0.00 | 0.00 | 0.00 | 63 | 1013.1 | |
| 20260503014016 | 21 | 0.0 | 1.6 | 0.00 | 0.00 | 0.00 | 64 | 1013.0 | |
| 20260503013037 | 22 | 158 | 1.6 | 6.4 | 0.00 | 0.00 | 0.00 | 62 | 1013.1 |
| 20260503012016 | 22 | 158 | 1.6 | 6.4 | 0.00 | 0.00 | 0.00 | 63 | 1013.1 |
| 20260503011036 | 22 | 0.0 | 8.0 | 0.00 | 0.00 | 0.00 | 62 | 1013.0 | |
| 20260503010017 | 22 | 0.0 | 4.8 | 0.00 | 0.00 | 0.00 | 62 | 1013.1 | |
| 20260503005016 | 22 | 158 | 1.6 | 4.8 | 0.00 | 0.00 | 0.00 | 62 | 1013.1 |
| 20260503004017 | 22 | 180 | 1.6 | 6.4 | 0.00 | 0.00 | 0.00 | 62 | 1013.1 |
| 20260503003017 | 22 | 158 | 1.6 | 8.0 | 0.00 | 0.00 | 0.00 | 61 | 1013.2 |
| 20260503002016 | 22 | 225 | 1.6 | 6.4 | 0.00 | 0.00 | 0.00 | 62 | 1013.2 |
| 20260503001041 | 22 | 180 | 1.6 | 6.4 | 0.00 | 0.00 | 0.00 | 61 | 1013.3 |
| 20260503000016 | 22 | 158 | 1.6 | 8.0 | 0.00 | 0.00 | 0.00 | 61 | 1013.3 |
| 20260502235017 | 22 | 158 | 1.6 | 8.0 | 0.00 | 0.00 | 0.00 | 61 | 1013.4 |
| 20260502234017 | 22 | 158 | 1.6 | 6.4 | 0.00 | 0.00 | 0.00 | 62 | 1013.5 |
| 20260502233017 | 22 | 158 | 1.6 | 6.4 | 0.00 | 0.00 | 0.00 | 62 | 1013.6 |
| 20260502232017 | 22 | 158 | 1.6 | 9.7 | 0.00 | 0.00 | 0.00 | 62 | 1013.8 |
| 20260502231017 | 22 | 225 | 1.6 | 6.4 | 0.00 | 0.00 | 0.00 | 64 | 1013.8 |
| 20260502230016 | 22 | 0.0 | 4.8 | 0.00 | 0.00 | 0.00 | 64 | 1014.0 | |
| 20260502225016 | 22 | 158 | 1.6 | 8.0 | 0.00 | 0.00 | 0.00 | 64 | 1014.2 |
| 20260502224059 | 22 | 158 | 3.2 | 8.0 | 0.00 | 0.00 | 0.00 | 63 | 1014.3 |
| 20260502223037 | 22 | 158 | 1.6 | 6.4 | 0.00 | 0.00 | 0.00 | 65 | 1014.4 |
| 20260502222016 | 22 | 158 | 1.6 | 8.0 | 0.00 | 0.00 | 0.00 | 64 | 1014.5 |
| 20260502221016 | 22 | 0.0 | 4.8 | 0.00 | 0.00 | 0.00 | 64 | 1014.7 | |
| 20260502220016 | 22 | 158 | 1.6 | 6.4 | 0.00 | 0.00 | 0.00 | 64 | 1014.7 |
| 20260502215057 | 22 | 158 | 1.6 | 6.4 | 0.00 | 0.00 | 0.00 | 64 | 1014.8 |
| 20260502214017 | 21 | 0.0 | 6.4 | 0.00 | 0.00 | 0.00 | 63 | 1014.9 | |
| 20260502213016 | 21 | 135 | 1.6 | 9.7 | 0.00 | 0.00 | 0.00 | 65 | 1015.0 |
| 20260502212016 | 21 | 158 | 1.6 | 4.8 | 0.00 | 0.00 | 0.00 | 64 | 1015.2 |
| 20260502211016 | 21 | 225 | 1.6 | 6.4 | 0.00 | 0.00 | 0.00 | 63 | 1015.3 |
| 20260502210016 | 20 | 225 | 1.6 | 9.7 | 0.00 | 0.00 | 0.00 | 65 | 1015.3 |
| 20260502205016 | 20 | 158 | 1.6 | 8.0 | 0.00 | 0.00 | 0.00 | 63 | 1015.3 |
| 20260502204037 | 20 | 225 | 1.6 | 6.4 | 0.00 | 0.00 | 0.00 | 67 | 1015.3 |
| 20260502203036 | 20 | 158 | 1.6 | 4.8 | 0.00 | 0.00 | 0.00 | 67 | 1015.5 |
| 20260502202036 | 19 | 158 | 1.6 | 4.8 | 0.00 | 0.00 | 0.00 | 68 | 1015.7 |
| 20260502201017 | 19 | 225 | 1.6 | 6.4 | 0.00 | 0.00 | 0.00 | 67 | 1015.8 |